Theta_e
321 320 320 320 320 319 319 318 318 319 319 320 320 319 319 318 316 315 314 318 324 327 325 323 321 320 319 318 317 316 315 315 314 315 315 315 314 313 312 312 312 313 311
322 320 319 319 319 319 318 318 318 319 319 319 319 319 319 319 318 314 315 315 322 325 327 325 323 322 321 320 318 317 317 316 315 315 315 315 314 313 311 312 311 311 310
321 321 319 318 319 319 318 318 318 318 318 318 318 319 319 319 318 315 314 314 317 320 324 325 325 324 324 323 322 320 319 318 317 315 316 316 313 313 312 311 310 310 310
323 320 319 317 318 317 317 317 316 316 316 316 316 317 318 318 319 318 314 313 313 315 318 324 325 325 324 324 323 322 321 320 319 317 316 316 315 314 313 312 311 310 309
323 321 318 318 317 316 316 316 316 315 314 315 315 316 320 320 321 320 316 314 313 313 313 317 321 322 324 324 324 324 324 323 320 319 318 317 317 316 315 313 313 311 310
323 319 317 316 317 316 315 315 314 315 315 315 317 317 318 319 320 319 317 317 314 313 312 312 312 313 318 322 323 324 324 324 323 321 319 318 317 317 316 316 314 313 312
323 321 318 316 316 316 316 315 314 314 314 316 315 317 317 319 318 316 316 315 314 314 312 312 311 310 310 320 320 322 324 324 324 324 322 320 319 318 318 317 317 315 313
323 322 320 318 317 316 314 315 314 313 314 316 313 311 310 309 312 315 315 316 315 314 313 312 311 310 308 308 311 319 322 323 324 324 324 323 321 320 319 318 318 317 316
322 322 321 320 319 317 316 316 316 315 314 315 316 311 305 304 306 310 312 315 315 312 312 312 312 310 309 308 310 313 318 318 320 321 322 323 324 322 321 319 319 319 317
321 321 321 321 321 320 317 317 318 318 317 315 314 316 312 311 306 304 309 310 311 312 313 311 312 310 308 308 307 306 308 315 316 316 317 319 321 323 324 322 320 319 319
322 321 321 321 321 322 321 319 318 318 319 318 316 312 314 311 311 311 309 309 308 311 314 312 313 311 312 310 309 305 308 311 311 312 313 314 315 318 320 320 322 320 319
322 322 321 321 322 322 321 321 320 319 319 319 318 317 314 311 312 311 309 308 307 309 311 311 310 310 313 310 306 303 306 309 311 311 311 312 312 313 314 315 319 322 320
321 322 321 320 321 322 322 322 321 320 320 319 319 318 319 317 313 312 311 307 305 307 310 314 315 313 312 308 306 300 301 306 309 309 309 309 309 309 311 313 315 316 318
323 323 322 322 321 322 322 322 322 322 322 320 320 319 319 319 318 316 313 310 309 309 309 311 311 309 306 305 303 298 300 302 305 306 306 306 307 308 309 310 311 312 314
324 324 323 322 322 321 321 321 321 321 322 322 321 320 319 319 319 318 317 317 313 308 307 309 307 307 303 302 299 301 299 298 301 302 303 304 304 306 307 308 310 311 311
326 325 324 322 322 321 321 321 321 321 321 321 321 321 320 320 320 320 318 318 316 313 309 311 309 306 300 299 297 298 297 296 298 299 299 300 302 303 304 305 307 309 308
326 325 325 323 322 321 321 320 320 320 320 320 321 320 320 321 320 318 317 317 316 315 311 312 307 301 298 298 296 296 295 295 294 295 297 298 299 300 301 302 303 306 305
326 326 325 324 322 322 321 320 319 320 320 319 320 319 319 318 318 317 316 315 315 315 313 310 302 297 298 297 297 295 293 294 293 293 296 297 298 298 298 299 300 302 302
326 326 325 323 323 322 322 321 321 321 320 320 320 319 318 317 314 316 315 314 314 313 313 307 299 295 294 293 290 290 291 290 290 292 294 295 295 296 297 298 299 300 300
325 324 324 324 323 323 322 321 321 321 321 321 320 318 317 315 315 314 313 313 312 309 301 295 290 292 290 288 288 287 286 286 287 288 290 291 292 292 294 295 295 295 297
324 324 323 323 323 323 321 320 319 320 320 319 316 315 316 311 304 310 312 311 307 302 291 291 288 287 287 286 287 287 286 286 286 286 285 285 284 284 285 290 290 292 295
320 321 321 321 321 320 311 307 315 319 318 315 314 313 313 298 301 301 302 304 306 302 295 293 289 289 288 289 286 286 286 285 285 284 283 284 282 284 284 283 289 292 293
316 316 318 320 320 320 305 304 303 317 317 316 315 311 306 302 298 303 297 297 297 298 298 296 290 290 288 288 287 285 285 285 285 285 283 282 282 283 282 284 290 292 291
310 311 315 318 319 318 302 302 299 317 315 315 313 309 305 298 297 296 294 292 291 292 293 292 291 289 291 289 288 288 286 286 284 284 284 281 279 280 280 280 289 291 290
305 308 311 311 313 312 299 301 301 311 308 307 307 305 304 298 294 295 291 289 287 286 292 293 293 293 293 291 289 287 285 284 282 283 283 282 278 278 277 278 280 289 288
303 303 299 303 301 309 297 298 302 305 295 292 287 291 290 295 292 294 291 288 286 286 286 286 287 290 290 290 290 285 285 283 284 282 282 279 277 276 276 277 277 277 279
Wind_Speed
6 5 5 5 4 4 4 5 5 4 5 3 3 3 3 3 3 2 1 6 7 6 6 5 4 5 5 5 6 6 6 6 6 5 5 6 5 5 4 5 5 6 6
6 5 5 6 5 5 5 5 5 5 4 4 5 4 5 4 4 5 3 3 7 8 8 7 7 7 8 8 8 8 8 8 7 8 8 8 7 7 7 6 7 6 6
7 7 5 5 6 5 7 5 4 4 4 4 6 5 4 5 4 5 4 3 4 8 9 11 10 11 10 10 11 10 10 11 11 10 9 9 9 9 9 7 6 6 8
9 7 6 5 5 5 5 4 4 4 4 4 4 4 4 5 6 6 5 4 4 4 6 12 13 14 13 13 12 13 13 13 13 12 12 13 12 12 10 10 9 8 7
10 9 7 7 7 5 5 4 4 4 3 4 4 5 5 5 5 5 6 6 6 5 4 8 13 13 14 15 14 14 16 15 15 14 14 14 14 14 14 13 12 11 10
12 8 7 8 7 5 5 4 5 4 4 5 4 5 6 4 4 5 6 6 6 7 6 7 5 5 12 16 16 17 17 17 17 16 17 17 16 17 16 16 16 15 14
12 11 7 9 8 8 9 8 5 6 5 4 3 4 3 5 6 6 5 5 6 7 7 7 5 4 5 16 18 18 19 20 20 19 19 20 18 18 18 18 19 17 17
14 13 12 10 10 8 8 10 7 4 5 6 4 1 3 4 5 8 5 7 9 4 6 7 7 7 6 5 9 19 20 20 20 21 20 21 20 20 19 20 20 21 20
16 16 15 12 11 10 10 11 11 12 9 5 7 5 3 5 1 1 6 7 7 5 5 6 7 7 7 7 9 12 19 20 20 20 21 20 20 22 23 23 23 24 23
17 16 16 16 14 10 12 12 10 10 8 9 3 7 3 4 4 3 3 4 5 6 7 5 6 6 7 7 10 13 14 16 17 18 20 21 21 21 21 25 25 24 24
17 18 17 16 16 13 13 14 13 13 10 9 8 3 8 4 4 6 7 5 3 4 6 6 6 6 8 9 8 8 16 16 16 15 17 20 22 21 20 22 26 25 25
13 17 17 16 17 16 16 14 15 15 14 12 10 9 7 6 9 8 9 7 6 4 5 6 6 6 7 7 8 12 13 16 14 14 15 16 18 21 22 24 25 23 25
13 18 19 18 16 18 17 15 15 16 16 13 15 11 10 10 4 7 8 5 5 4 5 6 6 7 7 6 6 9 10 11 12 11 12 14 18 20 20 21 22 23 22
15 17 18 19 20 18 17 15 12 13 15 14 17 15 11 11 10 9 8 7 6 6 5 6 4 5 4 4 5 10 6 10 11 12 14 15 17 19 20 20 21 22 21
14 17 18 19 19 19 18 17 14 16 15 15 15 15 14 10 9 9 9 9 9 8 5 4 4 3 3 4 4 3 4 7 10 10 11 13 14 17 19 19 20 20 19
18 16 17 19 19 19 19 18 15 16 15 13 12 15 14 11 10 10 9 9 8 10 9 5 6 3 3 3 4 4 4 5 5 6 9 11 14 16 17 17 17 19 18
17 18 18 18 19 19 19 18 18 17 19 18 16 16 17 15 10 8 8 8 9 8 11 5 2 2 3 3 3 3 2 2 2 6 9 11 13 15 15 15 16 15 16
18 17 17 19 19 20 19 20 20 18 19 19 18 16 17 10 13 11 9 12 10 10 9 11 4 3 4 1 2 3 1 2 3 5 9 11 13 14 13 14 14 14 15
18 17 17 19 20 20 20 19 20 19 18 18 17 17 17 13 13 11 11 10 9 9 9 5 4 2 2 3 1 1 2 2 2 6 9 10 11 14 13 13 13 11 10
18 18 18 19 19 19 19 18 18 18 18 17 16 15 15 15 17 14 12 12 10 8 5 3 2 3 3 1 2 2 1 1 2 2 4 6 9 11 11 11 10 8 6
18 19 19 18 18 17 14 18 18 19 19 17 14 15 16 16 17 16 11 12 9 7 3 4 3 2 3 3 4 3 3 1 2 2 2 2 2 3 5 8 7 7 8
15 16 18 18 18 14 18 20 19 16 17 15 15 15 14 12 16 18 18 15 15 12 9 5 4 4 5 4 4 3 3 3 3 1 2 2 1 3 5 4 8 7 6
14 15 17 17 19 18 18 21 22 16 16 16 17 14 11 9 11 11 10 13 12 11 8 9 6 6 5 6 7 5 4 3 3 3 3 2 1 4 3 4 7 5 2
14 13 15 16 17 15 19 21 21 19 14 16 16 15 15 13 12 13 11 8 6 6 7 5 5 6 5 8 7 5 5 4 2 1 3 1 1 3 4 3 4 1 5
12 13 14 15 17 14 19 22 19 16 13 14 13 13 14 13 15 17 12 10 6 3 5 8 7 10 13 14 10 7 5 4 2 2 2 3 1 2 2 3 2 6 8
14 9 10 11 13 15 15 18 19 9 7 4 2 5 10 13 21 20 12 12 10 9 9 6 5 7 9 11 15 3 6 5 3 3 2 3 1 2 3 2 2 1 3
Wind_Direction
183 174 182 177 186 187 192 205 211 220 221 241 218 185 212 182 160 155 184 198 197 215 203 189 189 187 189 187 181 191 190 184 189 186 171 159 158 142 138 136 125 119 116
185 184 187 193 194 193 197 199 200 202 209 210 217 213 214 216 213 166 183 211 219 219 226 222 214 216 214 210 210 209 209 208 207 209 196 186 185 172 183 177 170 154 146
186 187 187 195 197 194 200 203 217 210 202 210 218 217 213 215 216 216 206 203 227 235 230 234 232 232 231 226 222 221 222 221 219 219 219 210 203 202 199 198 196 187 173
185 191 190 197 195 192 192 188 191 198 211 202 205 221 220 212 218 220 216 219 209 217 239 236 238 240 238 238 236 229 230 231 228 224 225 222 221 216 217 211 211 213 216
189 192 195 200 192 191 193 185 201 175 200 222 215 229 223 209 214 213 219 223 217 220 215 236 234 235 241 243 244 244 240 236 238 234 231 232 230 227 217 220 217 219 216
196 184 197 197 192 190 198 186 185 202 189 201 212 220 231 226 232 232 218 223 221 214 219 222 227 227 232 241 248 252 251 248 242 237 236 234 230 235 229 220 224 221 220
198 197 198 199 193 196 201 194 178 197 218 192 175 242 258 243 236 235 233 227 232 218 220 225 222 206 222 230 240 250 252 254 251 242 232 236 231 238 239 232 231 228 228
197 201 203 203 196 197 195 196 189 195 204 184 177 151 259 299 259 239 227 236 236 206 228 230 222 211 204 215 227 239 249 253 256 259 245 243 233 232 235 233 239 234 233
200 203 203 203 203 200 203 201 200 203 210 202 196 158 187 222 284 269 232 233 228 217 229 234 229 219 208 216 228 235 239 247 255 262 264 259 243 236 233 230 233 236 236
203 202 204 203 203 203 206 204 204 206 199 206 198 224 205 154 186 300 292 245 213 229 239 235 233 219 214 220 224 223 224 234 245 255 261 264 264 255 250 241 234 238 236
204 203 204 203 205 207 209 205 206 206 204 208 204 162 223 220 200 224 264 245 274 232 225 227 231 224 220 222 234 230 225 229 235 245 255 262 265 265 273 278 246 238 237
202 205 205 205 208 211 210 205 207 206 209 212 207 205 195 188 212 212 236 229 224 242 227 222 222 222 234 226 216 217 212 229 231 238 252 260 266 268 267 269 272 265 243
207 210 203 208 209 210 212 209 208 211 209 209 209 211 216 216 182 203 217 231 216 234 244 231 225 216 223 208 216 201 214 223 231 243 250 258 266 266 264 265 267 269 271
211 209 206 209 213 212 213 211 213 216 213 214 214 213 218 221 215 208 205 205 246 236 231 232 214 223 223 200 197 187 176 205 221 238 252 258 262 265 262 259 262 266 268
217 211 206 207 209 212 211 211 215 217 217 215 217 216 218 219 215 214 214 213 219 244 244 220 227 221 183 149 150 172 160 194 227 242 263 272 277 274 270 264 261 262 265
217 210 206 206 207 210 210 211 215 217 215 217 217 217 219 220 217 214 210 215 211 228 250 201 211 175 162 140 169 170 170 187 240 268 275 278 276 275 275 272 268 263 260
217 215 208 204 205 209 210 211 215 214 215 216 214 215 222 214 214 204 205 207 213 215 239 232 182 187 149 149 176 170 144 195 231 263 269 273 277 280 279 277 271 264 263
220 216 209 207 207 209 208 209 214 214 215 215 215 215 220 211 212 209 205 215 217 216 227 240 170 176 180 202 135 128 178 232 252 276 285 282 282 281 278 275 267 264 272
223 219 212 210 211 210 209 210 212 214 217 217 216 213 217 201 209 214 213 214 216 216 215 205 169 136 101 136 133 150 206 266 262 259 268 274 274 272 278 282 274 271 264
220 221 218 218 216 213 210 208 208 211 214 216 215 213 208 200 210 210 209 214 211 204 177 157 141 152 146 148 128 150 239 242 284 289 263 260 271 272 277 274 278 292 296
222 220 220 221 218 217 211 207 205 207 210 210 204 201 205 205 204 204 203 208 190 184 153 161 151 128 165 155 182 162 156 169 264 223 331 324 294 294 281 282 270 263 254
224 222 221 219 217 215 209 202 202 208 211 206 204 205 204 197 205 202 200 192 192 183 185 164 163 179 175 177 139 151 148 181 225 187 177 289 60 298 276 284 281 294 301
223 222 223 220 221 217 198 196 196 207 208 207 207 202 196 197 190 189 170 166 172 163 153 167 170 183 154 167 138 158 175 167 170 170 110 303 79 292 271 280 284 292 315
223 219 222 222 222 220 191 196 193 209 210 211 204 196 195 184 181 166 161 154 152 153 156 158 161 164 155 152 152 162 159 141 99 127 112 190 46 268 333 320 286 155 64
231 226 224 215 218 216 193 193 187 209 208 208 199 194 191 181 173 160 155 156 142 123 134 148 162 163 151 148 147 137 164 155 153 167 140 155 198 287 341 304 316 92 31
236 223 223 219 213 216 199 196 191 199 194 174 118 167 175 168 162 166 161 159 164 173 150 136 141 143 146 158 167 156 156 161 139 144 152 152 138 127 316 258 288 323 8